Regional Weather Roundup
Issued by NWS Jackson, KY

Home | Current Version | Previous Version | Graphics & Text | Print | Product List | Glossary On
Versions: 1 2 3 4 5 6 7 8 9 10 11 12 13 14 15 16 17 18 19 20 21 22 23 24 25 26 27
000
ASUS43 KJKL 272110
RWRJKL

EAST KENTUCKY HOURLY WEATHER ROUNDUP
NATIONAL WEATHER SERVICE JACKSON KY
500 PM EDT SAT MAY 27 2017

NOTE: "FAIR" INDICATES FEW OR NO CLOUDS BELOW 12,000 FEET WITH
NO SIGNIFICANT WEATHER AND/OR OBSTRUCTIONS TO VISIBILITY.

* THESE REPORTS ARE NOT UNDER NWS QUALITY CONTROL AND MAY NOT
  REPORT WEATHER SUCH AS PRECIPITATION AND FOG.

KYZ079-080-083-085-087-088-110-112-115-119-120-272200
...EASTERN KENTUCKY...

CITY           SKY/WX    TMP DP  RH WIND       PRES   REMARKS
JACKSON        CLOUDY    76  67  73 CALM      29.92S
LONDON         CLOUDY    74  69  85 W5        29.93S
SOMERSET*      CLOUDY    77  68  73 W5        29.92F
MONTICELLO*    MOSUNNY   82  70  66 W21       29.92F
WILLIAMSBURG*  CLOUDY    81  68  65 SW6       29.93S
MIDDLESBORO*   PTSUNNY   82  68  62 S7        29.93F
HARLAN APT*    PTCLDY    79  64  61 CALM      29.94F
PIKE CO APT*     N/A     77  68  75 SW3       29.92S
BIG SANDY APT* MOCLDY    79  68  70 SW3       29.91R
MOREHEAD APT*  MOCLDY    79  68  69 SW12      29.90R
ASHLAND*       MOSUNNY   82  70  65 W8        29.82F
$$

KYZ035-036-041-042-044-050-067-078-099-272200
...CENTRAL KENTUCKY...

CITY           SKY/WX    TMP DP  RH WIND       PRES   REMARKS
MT STERLING*   CLOUDY    72  64  78 SW9       29.91R
FLEMING/MASON* LGT RAIN  73  68  86 CALM      29.87S
DANVILLE*      CLOUDY    70  68  94 SW8       29.91F
LEXINGTON      CLOUDY    81  69  67 SW16      29.86F THUNDER
FRANKFORT      PTSUNNY   78  69  73 CALM      29.85F THUNDER
LOUISVILLE     CLOUDY    83  69  62 SW5       29.81F
LEBANON*         N/A     77  68  73 S7        29.88F
GLASGOW*       PTSUNNY   83  70  64 SW10      29.87F
BOWLING GREEN  PTSUNNY   85  72  65 SW9       29.85F HX  91
$$

KYZ091>093-OHZ055-061-077-WVZ005-015-034-035-042-272200
...SOUTHERN OHIO/WEST VIRGINIA...

CITY           SKY/WX    TMP DP  RH WIND       PRES   REMARKS
COVINGTON      CLOUDY    83  68  60 W9        29.84F
COLUMBUS       PTSUNNY   79  66  64 E3        29.83F
DAYTON         PTSUNNY   80  64  58 NW9       29.85F
WILMINGTON     MOSUNNY   81  67  62 W8        29.84F
HUNTINGTON     MOSUNNY   81  68  64 SW6       29.86S
CHARLESTON     MOSUNNY   81  66  60 SW9       29.85F
PINEVILLE*     PTSUNNY   81  65  58 MISG      29.98S
BECKLEY        PTSUNNY   76  62  62 W9        29.95F
BLUEFIELD      CLOUDY    73  60  63 W9        30.00S
LOGAN CO APT*  MOCLDY    77  68  73 CALM      29.92S
$$

VAZ002-007-008-TNZ017-027-036-066-071-272200
...SOUTHWEST VIRGINIA/EAST TENNESSEE...

CITY           SKY/WX    TMP DP  RH WIND       PRES   REMARKS
WISE*          PTSUNNY   73  63  68 SW7       30.00F
JONESVILLE*      N/A     82  66  57 SW12      29.96F
ABINGDON*      PTSUNNY   79  67  66 W12       29.98S
BRISTOL        PTSUNNY   79  66  64 SW10      29.95S
MORRISTOWN*    MOCLDY    81  68  65 W10G21    29.94F
SEVIERVILLE*   CLEAR     82  66  57 W10       29.94F
KNOXVILLE      CLOUDY    80  72  76 W6        29.94F
LAFOLLETTE*    MOCLDY    81  68  65 S9        29.95F
OAK RIDGE      PTSUNNY   83  66  56 S8        29.94F
CROSSVILLE     PTSUNNY   76  66  71 VRB5      29.97F
NASHVILLE      LGT RAIN  79  72  79 CALM      29.89S
$$

...KEY TO REMARKS...
VSB - VISIBILITY IN MILES
WCI - WIND CHILL INDEX
HX  - HEAT INDEX

$$




USA.gov is the U.S. government's official web portal to all federal, state and local government web resources and services.